User: anonymous   Login
Location: Arcueil
(48.7999°N, 2.3326°E)
Time: 14:38:50
(UTC+00:00)
Language:

ISS - Orbit

View from above orbital plane
View from above orbital plane
View from above satellite
View from above satellite

Ground track
Ground track

The orbit data is extracted from the following two-line orbital elements,

1 25544U 98067A   24170.37528350  .00016566  00000-0  30244-3 0  9997
2 25544  51.6410 309.3890 0010444 339.5369 107.8830 15.49495945458731
Epoch (UTC): 18 June 2024 09:00:24
Eccentricity: 0.0010444
inclination: 51.6410°
perigee height: 411 km
apogee height: 425 km
right ascension of ascending node: 309.3890°
argument of perigee: 339.5369°
revolutions per day: 15.49495945
mean anomaly at epoch: 107.8830°
orbit number at epoch: 45873

The dashed part of the orbit path shows where the satellite is in the earth's shadow,  

DLR